ELECTRON KICK STAGE R/B, 63207

Orbit data source: Space-Track

ELECTRON KICK STAGE R/B, 63207 is space debris in LEO originally from a launch on Sat, 15 Mar 2025 UTC launched from the Rocket Lab Launch Complex (RLLC). Debris objects in space refer to the collection of defunct objects orbiting the Earth. Examples of debris include non-operational satellites, rocket bodies, and fragments generated from explosions, collisions, or faulty payload assembly.

Loading next visibility...
Identifier
63207, 2025-050C
Orbit
LEO
Last TLE update
17 hours ago
Origin
Manufacturer
Rocket Lab
Mission
Spacecraft
Bus & Motor
KICK STAGE, CURIE
Mass
~42 kg wet, ~42 kg dry
Launch date (UTC)
2025-03-15 (2 months ago)
Launch vehicle
Unknown
Launch site
Rocket Lab Launch Complex (RLLC)
Object type
Payload
Rocket body
Debris
Shape & HBR
Trunc Cone, 1.4 m
Radar Cross Section
0.760 m², Medium (>0.1 m² and < 1m²)

Expand to show TLE details & history

TLE from 17 hours ago
0 ELECTRON KICK STAGE R/B
1 63207U 25050C   25128.56523708  .00005325  00000-0  45251-3 0  9999
2 63207  42.0175 168.3849 0007239 280.3353  79.6656 14.98495876  8180
Epoch: 2025-05-08T13:33Z
Definitive object data (Epoch: 2025-05-08T13:33:56.483Z)
Latitude
-0.00003°
Longitude
98.26561°
Altitude
570.315 km
Speed
7.578 km/s
True Right ascension
11h 13m 32s
True Declination
0° 00' 00"
Sunlit
Object was in full shadow at TLE epoch
Visualization TLE readout
Latitude
-20.46685°
Longitude
-61.2771°
Altitude
574.587 km
Speed
7.575 km/s
Apparent Right ascension
01h 28m 10s
Apparent Declination
-30° 30' 26"
Sunlit
Object is in daylight
Visualization observer readout
Local Sidereal Time
14:38:56
Azimuth
62.315° ENE
Elevation
-72.806°
Doppler factor
1
Orbital elements
Apogee altitude
578.658 km
Perigee altitude
568.594 km
Semi-major axis
6,951.763 km
Eccentricity
0.0007239
Inclination
42.0175°
RAAN
168.3849°
Arg. of periapsis
280.3353°
True anomaly
79.74722°
Mean anomaly
79.6656°
Eccentric anomaly
79.70641°
Mean motion
3.74456 °/min
BSTAR
0.00045251
Orbital period
96.14 mins
Loading maneuver chart data...
Loading SW <> Apogee altitude chart data...
Loading historical data...
Loading historical data...
Loading historical data...
Loading historical data...
Loading historical data...
Loading historical data...
Loading historical data...
Other satellites on launch #50 in the year 2025 (2025-03-15 UTC)

ELECTRON KICK STAGE R/B Visibility forecast

Observer location: undefined°, undefined°

Span
Click to sort rows by Start time (UTC) header in descending order
Start Az.
Max El. time (UTC)
Max El. Az.
Max El.
End time (UTC)
End Az.
7 mins2025-05-09 07:26:05.298Z257.736° W2025-05-09 07:30:05.298Z56.192° ENE43.889°2025-05-09 07:33:05.298Z74.705° E
7 mins2025-05-09 09:08:05.298Z284.809° WNW2025-05-09 09:11:05.298Z17.186° NNE42.511°2025-05-09 09:15:05.298Z87.466° E
7 mins2025-05-09 10:49:05.298Z279.34° WNW2025-05-09 10:52:05.298Z198.631° SSW41.97°2025-05-09 10:56:05.298Z121.233° SE
4 mins2025-05-09 12:31:05.298Z242.05° WSW2025-05-09 12:32:05.298Z225.847° WSW16.33°2025-05-09 12:35:05.298Z179.005° S
6 mins2025-05-10 05:47:05.298Z220.202° SW2025-05-10 05:50:05.298Z141.005° SSE35.845°2025-05-10 05:53:05.298Z84.179° E
|